Total_Precipitation_Accumulation
1.57 1.45 1.28 1.42 1.39 1.38 1.53 1.42 1.39 1.03 0.96 0.37 0.52 0.54 0.68 0.63 0.54 0.49 0.42 0.55 0.19 0.03 0.03 0.11 0.05 0.02 0.03 0.06 0.10 0.08 0.24 0.43 0.45 0.28 0.36 0.20 0.11 0.06 0.01 0.00 0.00 0.00 0.00 0.00 0.00 0.00 0.02 0.03 0.08 0.13 0.19 0.06 0.03 0.03 0.06 0.18 0.18 0.11 0.03 0.04 0.03 0.03 0.04 0.04 0.02 0.03 0.02 0.01 0.03 0.04 0.04 0.06 0.05 0.06 0.03 0.05 0.06 0.05 0.04 0.07 0.09 0.08 0.05 0.05 0.09
1.76 1.69 1.05 1.42 1.97 2.52 2.65 2.17 2.01 1.65 1.00 0.65 0.45 0.41 1.20 0.99 0.94 0.45 0.62 0.29 0.40 0.20 0.03 0.15 0.19 0.02 0.03 0.10 0.60 0.25 0.20 0.48 0.70 0.72 0.30 0.21 0.20 0.20 0.03 0.00 0.00 0.00 0.00 0.00 0.00 0.00 0.00 0.01 0.06 0.12 0.15 0.11 0.06 0.04 0.29 0.34 0.32 0.08 0.04 0.02 0.02 0.02 0.02 0.04 0.04 0.03 0.02 0.04 0.03 0.03 0.05 0.05 0.06 0.08 0.05 0.03 0.03 0.04 0.05 0.05 0.07 0.08 0.06 0.05 0.06
1.66 1.58 2.72 2.82 1.67 1.64 1.62 3.01 2.43 2.29 1.35 0.77 0.85 0.74 1.02 0.96 0.81 0.68 0.46 0.26 0.72 0.32 0.07 0.26 0.23 0.04 0.07 0.22 0.40 0.22 0.28 0.37 0.67 0.88 0.90 0.78 0.48 0.50 0.30 0.03 0.02 0.00 0.00 0.00 0.00 0.00 0.01 0.01 0.09 0.08 0.21 0.20 0.19 0.19 0.17 0.34 0.21 0.08 0.05 0.06 0.03 0.02 0.02 0.05 0.06 0.02 0.02 0.02 0.03 0.03 0.05 0.03 0.05 0.04 0.05 0.03 0.04 0.06 0.08 0.06 0.07 0.05 0.06 0.08 0.05
1.72 2.50 1.79 1.76 1.55 1.15 1.16 2.14 2.33 2.43 2.28 1.16 0.74 0.88 1.14 0.84 0.90 0.49 0.39 0.59 0.53 0.37 0.26 0.28 0.36 0.25 0.11 0.10 0.30 0.90 0.96 0.97 0.90 0.86 1.15 1.30 1.24 0.73 0.59 0.28 0.06 0.00 0.00 0.00 0.01 0.00 0.02 0.07 0.10 0.15 0.23 0.30 0.15 0.20 0.30 0.29 0.17 0.20 0.12 0.06 0.03 0.01 0.02 0.03 0.10 0.03 0.03 0.04 0.04 0.04 0.03 0.02 0.02 0.03 0.04 0.03 0.03 0.04 0.08 0.07 0.09 0.08 0.07 0.09 0.08
2.11 1.69 1.36 1.16 1.39 1.64 1.67 1.44 2.40 3.25 3.30 2.36 2.07 1.65 0.83 0.58 1.01 0.73 0.63 0.46 0.38 0.30 0.15 0.36 0.31 0.39 0.31 0.39 0.78 1.12 1.28 0.80 0.79 1.22 1.37 1.28 1.18 0.96 0.75 0.36 0.33 0.06 0.00 0.00 0.02 0.01 0.05 0.02 0.05 0.14 0.26 0.29 0.16 0.24 0.28 0.61 0.17 0.29 0.19 0.18 0.10 0.03 0.02 0.04 0.14 0.05 0.06 0.04 0.04 0.02 0.04 0.03 0.02 0.03 0.03 0.03 0.02 0.03 0.05 0.07 0.07 0.06 0.05 0.08 0.11
1.99 1.58 1.29 1.83 1.77 1.74 1.36 1.76 2.05 3.76 2.72 2.77 3.13 2.43 1.19 0.70 0.78 0.38 0.43 0.53 0.45 0.34 0.31 0.49 0.45 0.45 0.46 1.11 1.26 1.15 0.52 0.64 1.52 1.01 1.33 1.39 1.36 0.85 0.93 0.46 0.63 0.53 0.20 0.01 0.01 0.02 0.02 0.05 0.07 0.10 0.40 0.36 0.27 0.49 0.40 0.74 0.55 0.35 0.21 0.23 0.05 0.05 0.05 0.05 0.17 0.11 0.08 0.06 0.03 0.02 0.03 0.02 0.02 0.03 0.04 0.03 0.04 0.04 0.05 0.05 0.06 0.07 0.06 0.06 0.06
2.48 1.96 1.64 2.43 2.76 2.10 1.39 1.15 1.15 1.21 1.81 2.14 2.93 2.79 1.76 1.51 1.26 0.72 0.42 0.32 0.65 0.71 0.72 1.01 0.50 0.35 0.90 0.75 0.84 0.97 1.20 1.17 1.48 1.12 0.99 1.36 1.66 0.96 1.06 0.97 0.77 0.80 0.69 0.40 0.07 0.02 0.01 0.03 0.18 0.15 0.36 0.33 0.28 0.24 0.29 0.44 0.48 0.41 0.30 0.18 0.21 0.16 0.14 0.06 0.12 0.21 0.05 0.07 0.03 0.01 0.06 0.05 0.03 0.03 0.03 0.03 0.05 0.03 0.05 0.06 0.06 0.05 0.06 0.06 0.06
1.46 1.82 2.11 2.21 2.20 2.00 1.57 1.76 1.71 1.26 1.33 2.06 2.64 2.62 1.93 1.26 1.19 0.83 0.42 0.34 0.38 0.95 1.00 0.76 1.06 0.68 1.17 0.92 1.29 1.40 1.21 1.16 1.25 1.41 1.11 1.05 1.63 1.08 1.21 1.01 0.75 0.91 0.82 0.89 0.68 0.16 0.02 0.07 0.10 0.25 0.36 0.36 0.17 0.24 0.45 0.51 0.46 0.44 0.38 0.35 0.22 0.12 0.09 0.06 0.12 0.17 0.05 0.03 0.03 0.02 0.03 0.03 0.03 0.04 0.03 0.05 0.03 0.06 0.06 0.09 0.09 0.09 0.07 0.06 0.06
1.82 1.54 1.99 2.13 2.35 2.19 1.93 1.92 1.71 1.47 1.36 1.17 1.36 1.96 2.61 1.99 1.22 1.03 0.74 0.71 0.46 1.22 1.08 0.95 1.05 1.54 1.49 1.86 1.32 0.93 0.93 1.93 1.72 1.10 0.62 1.03 1.11 0.80 1.36 1.52 1.08 0.56 1.03 0.85 0.77 0.76 0.09 0.05 0.11 0.28 0.19 0.16 0.08 0.08 0.15 0.41 0.47 0.61 0.44 0.38 0.28 0.40 0.21 0.23 0.13 0.11 0.13 0.07 0.06 0.05 0.03 0.05 0.07 0.02 0.05 0.09 0.05 0.05 0.08 0.08 0.07 0.09 0.07 0.07 0.06
1.06 1.06 1.27 1.86 2.25 2.15 2.12 2.97 2.15 1.73 1.79 1.50 1.37 1.46 1.64 2.03 1.84 1.29 1.06 1.23 1.36 1.63 1.70 1.48 1.47 1.93 1.99 1.12 1.38 1.00 1.22 1.09 1.30 0.93 1.47 0.76 1.07 0.96 1.44 2.16 1.42 1.45 1.28 1.44 1.52 0.78 1.01 0.27 0.14 0.11 0.10 0.18 0.10 0.07 0.18 0.31 0.68 0.56 0.66 0.65 0.46 0.41 0.32 0.59 0.53 0.20 0.10 0.12 0.06 0.05 0.04 0.03 0.02 0.02 0.05 0.06 0.08 0.06 0.05 0.08 0.08 0.08 0.08 0.08 0.08
0.89 0.99 1.14 1.43 1.40 1.64 1.99 2.70 2.26 2.55 2.38 1.85 1.60 1.12 1.50 1.94 2.32 2.20 1.96 1.93 2.53 1.77 2.23 1.76 1.80 2.08 1.96 1.54 1.27 1.89 1.72 1.60 1.11 1.38 1.02 1.35 1.20 1.18 1.73 2.46 1.85 1.24 1.38 1.45 1.78 1.53 1.16 0.76 1.00 0.85 0.82 0.36 0.10 0.14 0.24 0.20 0.34 0.43 0.51 0.93 1.02 1.05 0.55 1.27 1.24 0.24 0.20 0.17 0.12 0.07 0.05 0.04 0.03 0.03 0.08 0.09 0.11 0.12 0.08 0.07 0.07 0.07 0.07 0.08 0.06
0.66 1.06 2.00 1.13 1.37 1.84 1.77 1.41 2.13 3.35 2.60 2.13 1.30 1.48 1.69 1.94 1.75 2.02 2.36 2.17 1.86 1.85 1.99 1.86 2.08 2.04 1.93 2.16 2.02 1.69 1.69 2.02 1.45 1.66 1.32 1.48 0.83 1.15 1.17 1.61 1.47 1.56 1.80 1.85 1.60 2.14 1.46 1.84 1.68 1.06 0.82 0.45 0.14 0.07 0.09 0.18 0.20 0.42 0.81 1.07 1.39 0.76 0.77 1.16 1.07 0.78 0.34 0.23 0.24 0.17 0.05 0.05 0.05 0.06 0.03 0.04 0.07 0.06 0.11 0.08 0.08 0.10 0.09 0.10 0.08
0.69 0.79 0.82 0.83 1.09 1.25 2.42 2.42 1.40 2.11 1.77 2.29 2.09 1.75 1.78 2.03 1.97 1.93 2.35 1.76 1.95 1.82 2.41 2.38 2.54 2.42 1.44 1.88 1.71 1.52 1.66 1.15 1.55 1.88 1.56 1.93 1.49 1.06 1.44 2.04 2.34 1.79 1.97 1.15 1.89 2.46 1.92 2.03 2.21 1.43 1.67 1.14 0.45 0.35 0.40 0.32 0.55 1.05 0.93 1.17 1.50 1.57 1.34 1.40 1.55 2.41 1.02 0.51 0.22 0.22 0.11 0.11 0.08 0.11 0.19 0.13 0.14 0.20 0.19 0.15 0.09 0.06 0.08 0.13 0.09
0.71 0.97 0.82 0.89 1.09 0.99 1.48 1.59 1.66 1.79 1.82 1.77 1.89 2.51 2.46 2.16 1.98 3.03 1.93 2.44 2.60 2.27 2.71 2.38 2.56 2.07 2.22 2.03 2.25 1.23 1.20 1.46 1.35 1.57 1.61 1.57 1.36 1.58 2.32 2.02 2.26 3.03 3.04 1.93 3.03 2.35 2.08 2.06 1.86 0.94 1.43 1.47 1.32 1.30 1.32 1.20 1.15 0.94 0.87 1.05 1.21 1.27 1.79 1.90 1.72 1.88 1.06 0.68 0.46 0.35 0.13 0.11 0.11 0.13 0.11 0.08 0.16 0.15 0.22 0.22 0.21 0.10 0.14 0.16 0.14
0.62 0.53 0.66 1.09 0.89 0.84 0.90 1.30 1.72 2.09 1.68 1.74 1.13 1.45 1.95 2.02 1.92 1.40 2.08 1.84 1.77 2.70 2.69 1.75 2.59 3.81 4.46 2.49 2.05 1.77 2.04 1.47 1.89 1.55 1.16 1.33 0.98 1.10 1.04 1.77 2.32 3.18 3.18 3.31 2.96 2.58 1.87 1.63 1.58 1.44 1.58 1.15 1.97 1.66 1.26 0.87 0.66 0.53 0.98 0.95 0.91 0.93 1.23 1.80 2.27 2.38 1.91 0.97 0.65 0.64 0.66 0.30 0.23 0.25 0.09 0.08 0.11 0.29 0.19 0.12 0.16 0.17 0.18 0.19 0.24
0.57 0.84 0.59 0.81 1.01 0.86 1.13 1.00 1.46 1.57 1.70 1.92 1.57 1.41 1.16 1.62 1.68 1.59 1.82 2.10 1.53 2.54 1.97 3.06 3.36 2.75 2.46 2.03 2.00 1.58 2.06 2.16 1.29 1.23 1.73 2.18 1.43 0.99 1.15 1.45 1.21 1.42 2.30 2.35 2.60 1.65 1.66 2.08 1.97 0.97 0.99 1.29 1.71 1.50 1.47 1.47 0.54 0.12 0.16 0.27 0.20 0.41 0.75 1.31 2.60 2.07 1.96 0.94 0.91 0.84 1.21 0.72 0.64 0.40 0.29 0.17 0.48 0.58 0.43 0.22 0.33 0.30 0.49 0.53 0.40
0.77 0.81 0.42 0.52 0.81 0.98 1.22 1.05 0.80 1.02 1.14 1.52 1.47 1.22 1.32 1.10 0.96 1.35 1.28 1.86 1.45 2.01 1.89 2.05 2.49 2.96 2.74 1.88 2.13 1.91 1.79 1.52 1.06 1.57 1.84 1.85 1.38 1.26 1.11 1.29 1.32 1.54 2.00 2.03 1.20 1.73 1.17 1.66 1.96 1.42 1.49 1.17 1.08 1.26 1.80 1.95 2.13 1.02 0.45 0.28 0.28 0.27 0.52 1.00 2.32 3.11 1.97 2.40 0.90 0.91 0.91 0.86 1.04 0.85 0.55 0.15 0.18 0.24 0.45 0.56 0.42 0.42 0.44 0.29 0.25
1.03 0.74 0.58 0.91 1.20 0.80 0.88 0.95 0.89 0.70 0.81 1.01 0.97 1.41 1.51 1.42 0.79 0.81 0.82 1.16 1.17 1.23 1.85 1.29 2.48 2.98 2.17 2.25 2.57 2.60 2.17 1.98 1.06 1.90 1.77 1.48 1.64 1.20 1.66 1.64 1.58 1.58 1.75 1.51 1.64 1.25 1.29 2.19 1.70 1.51 1.35 1.72 1.02 1.38 0.88 0.99 1.29 1.59 1.92 0.81 0.63 0.55 0.33 0.53 1.97 4.42 4.31 2.88 1.70 1.48 1.41 1.22 1.43 0.90 0.86 0.57 0.31 0.35 0.82 0.73 0.47 0.44 0.40 0.48 0.47
1.12 1.09 0.96 1.16 1.23 0.82 0.49 0.35 0.64 1.36 1.27 0.93 0.91 0.78 0.99 1.05 1.39 1.49 0.91 1.00 1.25 1.04 1.00 1.18 1.73 2.46 1.55 2.22 3.14 2.37 1.54 1.94 1.93 1.72 1.67 1.82 1.93 1.29 1.65 1.83 1.79 1.61 1.00 1.16 1.12 0.86 1.14 1.04 0.87 0.96 1.17 0.71 0.68 0.96 0.94 0.98 0.50 0.60 0.66 0.52 0.52 0.64 0.78 0.92 0.98 2.11 2.91 3.45 4.87 3.48 2.67 1.40 0.77 0.69 0.81 1.16 1.16 1.13 0.93 0.85 0.68 0.42 0.43 0.52 0.81
1.73 1.33 1.43 1.27 1.56 0.99 0.69 0.59 0.50 0.78 0.68 0.70 0.70 0.78 0.89 1.33 1.49 1.55 1.76 1.54 1.28 1.11 0.85 0.89 1.00 1.26 0.94 1.27 1.52 2.33 2.92 1.59 1.65 1.74 1.61 1.73 1.94 1.63 1.08 1.57 1.49 1.03 1.01 0.84 0.68 0.78 0.92 0.77 1.02 0.67 0.69 0.48 0.60 0.67 0.76 0.54 0.98 1.38 0.61 0.76 0.71 0.79 1.02 0.60 0.84 0.63 0.76 1.93 3.87 3.59 3.38 2.38 2.27 1.11 0.64 1.15 1.56 1.06 1.25 1.10 1.02 1.12 1.13 0.78 0.44
1.53 1.40 1.65 1.22 1.33 0.76 0.67 0.70 0.96 0.70 0.46 0.76 0.83 0.80 0.96 0.92 0.96 1.20 1.44 1.49 1.42 1.34 1.42 1.33 1.19 1.18 0.93 1.23 1.22 1.56 1.39 1.56 2.32 2.14 1.88 1.38 1.23 1.17 1.74 1.35 1.63 1.57 1.60 0.66 0.87 1.17 0.79 1.13 0.84 0.96 1.25 0.84 0.64 0.64 1.01 0.92 1.03 1.44 1.01 0.90 0.87 0.90 0.71 0.58 0.71 1.03 1.49 1.73 1.83 2.09 2.85 2.36 2.55 2.60 1.43 1.33 1.22 1.42 1.15 1.52 1.54 0.94 0.83 0.74 0.66
2.17 2.27 1.68 1.56 1.26 0.85 0.77 0.79 0.93 0.63 0.39 0.67 0.58 0.58 0.67 0.59 0.71 0.73 1.14 1.49 1.51 1.67 1.75 1.44 1.49 1.60 1.09 1.08 1.06 1.19 1.04 1.18 1.23 1.35 1.84 1.40 1.18 1.00 1.01 1.40 1.95 1.15 1.10 1.05 0.81 0.74 0.62 0.91 0.68 1.13 0.93 0.88 1.42 0.96 0.71 0.87 1.05 1.18 0.78 0.53 0.35 0.28 0.27 0.61 0.79 1.00 1.10 0.91 1.60 1.11 1.97 2.11 2.76 3.05 2.11 1.24 1.02 1.41 1.95 1.70 1.31 1.01 0.70 0.89 0.93
1.54 1.29 1.72 1.06 0.81 0.86 0.65 0.60 0.63 0.62 0.72 0.69 0.22 0.79 0.67 0.50 0.81 0.66 0.87 1.14 1.18 1.44 1.46 1.44 1.35 1.56 1.39 1.48 1.07 1.21 1.09 0.96 1.06 1.20 1.59 1.12 0.77 0.52 0.66 0.47 0.72 1.21 1.21 0.73 0.79 0.37 0.59 0.71 0.60 0.41 0.36 0.58 0.47 0.48 0.76 0.72 0.75 0.76 0.99 0.40 0.31 0.35 0.37 0.49 0.82 0.85 1.54 2.43 1.72 2.24 1.14 1.88 3.36 2.20 1.94 1.37 1.13 1.09 1.19 1.19 1.13 1.31 0.99 1.13 1.11
1.33 1.32 1.11 0.92 0.67 0.68 0.58 0.65 0.38 0.54 0.77 1.00 0.67 0.47 0.52 0.69 0.92 0.74 0.66 0.98 1.36 1.39 1.27 1.43 1.51 1.35 1.59 1.69 1.29 1.21 1.19 1.03 1.14 1.35 1.41 0.88 0.98 0.69 0.47 0.50 0.90 0.33 0.34 0.85 0.80 0.58 0.60 0.57 0.34 0.28 0.24 0.26 0.29 0.28 0.51 0.76 0.61 0.42 0.38 0.43 0.25 0.22 0.31 0.47 0.39 0.33 1.18 1.65 0.34 0.45 1.11 2.86 2.29 1.34 1.55 1.81 1.51 1.32 1.33 1.23 1.20 1.10 1.14 1.10 0.84
0.73 0.56 0.88 0.64 0.49 0.46 0.33 0.20 0.28 0.76 1.39 0.56 0.76 0.71 0.93 0.75 1.06 0.74 0.75 0.69 0.60 0.72 1.30 1.22 1.29 1.15 1.30 1.85 1.79 1.34 1.03 0.83 1.42 1.08 1.50 1.18 1.22 0.81 0.53 0.71 0.45 0.34 0.36 0.41 0.82 0.75 0.68 0.44 0.40 0.31 0.21 0.27 0.20 0.17 0.37 0.63 0.44 0.55 0.33 0.29 0.28 0.25 0.45 0.56 0.37 0.23 0.17 0.18 0.23 0.34 0.70 0.86 1.21 2.77 0.92 1.29 1.49 0.97 0.85 0.97 1.26 1.78 1.52 1.66 0.96
0.34 0.66 0.52 0.59 0.31 0.28 0.38 0.50 0.49 1.14 1.21 0.76 0.53 0.62 0.72 0.45 0.73 0.96 0.92 0.84 1.09 0.96 1.24 1.20 1.48 1.37 1.31 1.73 1.00 1.00 1.35 0.89 1.21 1.32 1.18 1.38 1.22 0.92 0.86 0.65 0.67 0.34 0.32 0.42 0.28 0.90 0.63 0.43 0.51 0.48 0.39 0.25 0.18 0.18 0.20 0.25 0.29 0.23 0.37 0.22 0.65 0.44 0.28 0.20 0.13 0.12 0.45 0.78 1.12 0.47 0.64 1.11 0.93 0.77 0.55 0.57 0.55 0.66 0.64 0.58 0.70 1.06 1.26 1.11 1.15
0.71 0.58 0.58 0.72 0.35 0.35 0.39 0.43 0.62 0.78 0.69 0.67 0.50 0.76 0.82 0.95 0.60 0.78 0.83 1.05 0.96 0.93 0.95 1.20 0.99 0.96 1.28 1.32 1.02 1.23 1.06 0.65 1.35 0.90 0.78 0.85 0.79 0.96 1.20 1.15 0.77 0.51 0.55 0.28 0.28 0.15 0.26 0.52 0.23 0.75 0.33 0.38 0.27 0.18 0.13 0.23 0.19 0.19 0.17 0.45 0.58 0.39 0.22 0.34 0.27 0.17 0.18 0.52 1.10 0.26 0.43 0.94 0.95 0.26 0.22 1.02 0.58 0.37 0.87 0.61 0.87 0.84 0.97 1.43 1.80
0.89 0.46 0.59 0.82 0.78 0.62 0.51 0.51 0.55 0.76 0.70 0.59 0.40 0.60 1.01 0.92 0.77 0.55 0.99 0.65 0.77 0.87 1.02 1.04 1.06 1.15 0.92 0.93 1.05 0.95 0.70 0.75 0.92 0.98 0.84 1.29 1.06 1.36 1.27 1.21 0.98 0.90 0.65 0.41 0.37 0.26 0.22 0.25 0.38 0.21 0.42 0.43 0.57 0.57 0.30 0.20 0.21 0.20 0.37 0.28 0.17 0.40 0.43 0.72 0.58 0.61 0.28 0.83 0.67 0.42 0.25 0.26 0.40 0.63 0.78 0.29 0.29 0.36 0.50 0.59 1.26 1.26 0.70 1.02 1.17
1.21 0.64 0.55 0.37 0.86 0.52 0.60 0.57 0.56 0.61 0.77 0.52 0.73 1.08 0.93 1.25 0.67 1.02 0.47 0.49 0.84 0.70 0.83 0.72 0.86 0.95 1.15 0.99 1.11 0.90 1.10 0.76 0.77 1.14 1.38 1.44 1.35 1.32 1.44 1.45 1.17 1.39 0.89 0.54 0.39 0.39 0.20 0.22 0.45 0.19 0.15 0.79 0.83 0.90 0.52 0.40 0.34 0.24 0.30 0.42 0.12 0.29 0.16 0.22 0.23 0.22 0.33 0.40 0.54 0.76 0.46 0.36 1.01 1.02 0.30 0.24 0.14 0.13 0.25 0.32 0.61 1.30 0.79 0.45 0.47
1.10 0.65 0.40 0.50 0.67 0.64 0.70 0.58 0.60 0.71 0.61 0.90 1.21 1.11 0.91 0.73 0.54 0.68 0.75 0.74 0.72 0.75 0.66 0.78 0.65 0.99 1.20 1.33 0.98 1.08 0.66 0.74 1.01 1.09 1.27 1.16 1.39 1.26 1.27 1.39 1.42 1.54 1.04 1.00 0.73 0.41 0.46 0.20 0.53 0.41 0.42 0.37 0.37 0.41 0.49 0.71 0.37 0.41 0.53 0.41 0.40 0.31 0.08 0.14 0.56 0.33 0.31 0.48 0.28 0.30 0.20 0.28 0.27 0.35 0.25 0.24 0.25 0.35 0.18 0.21 0.74 0.75 1.05 0.35 0.29
0.91 0.97 0.50 0.32 0.41 0.54 0.63 0.51 0.33 0.57 0.70 1.05 1.23 0.74 0.71 0.61 0.60 0.45 0.41 0.61 0.67 0.54 0.62 0.67 0.83 0.78 0.81 0.74 1.02 1.08 1.31 1.08 1.06 1.03 1.11 1.42 1.47 1.55 1.61 1.59 1.67 1.18 1.16 1.11 1.06 0.53 0.35 0.55 0.41 0.28 0.61 0.42 0.39 0.45 0.45 0.37 0.39 0.47 0.49 0.65 0.56 0.29 0.27 0.36 0.28 0.44 0.48 0.53 0.84 0.59 0.87 1.14 0.54 0.39 0.72 0.79 0.26 0.32 0.41 0.23 0.24 0.41 0.47 0.45 0.71
0.40 0.80 0.83 0.57 0.71 0.91 0.58 0.44 0.33 0.77 0.40 0.56 0.99 1.44 1.15 0.95 0.80 0.73 0.74 0.75 0.64 0.53 0.63 0.57 0.77 0.64 0.66 1.08 0.74 0.94 0.92 1.18 1.20 1.05 0.94 1.21 1.34 1.52 1.48 1.71 1.80 1.73 1.57 1.40 1.25 0.87 0.49 0.33 0.30 0.36 0.44 0.47 0.53 0.64 0.59 1.16 0.85 0.77 0.39 0.50 0.43 0.87 0.76 0.48 0.32 0.34 0.46 0.32 0.90 1.25 0.83 0.51 0.58 0.33 0.26 0.41 0.34 0.33 0.46 0.31 0.41 0.30 0.29 0.54 0.63
0.49 0.46 0.46 0.68 0.72 0.73 0.69 0.57 0.45 0.45 0.53 0.63 0.80 0.60 1.08 0.70 0.80 0.80 0.70 0.56 0.52 0.61 0.50 0.54 0.57 0.65 0.85 0.82 0.59 0.68 0.82 0.99 1.32 0.99 0.88 1.00 1.14 1.44 1.39 1.86 1.78 1.58 1.69 1.56 1.36 1.26 1.19 0.59 0.62 0.45 0.46 0.70 0.79 0.42 0.60 0.53 0.43 0.54 0.55 0.50 0.50 1.39 1.02 0.53 0.50 0.42 0.41 0.38 0.39 0.45 0.30 0.31 0.50 0.84 0.59 0.43 0.57 0.41 0.36 0.32 0.22 0.22 0.23 0.31 0.37
0.82 0.93 0.67 0.65 0.72 0.79 0.68 0.91 0.51 0.78 0.74 0.61 0.54 0.60 0.56 0.52 0.49 0.79 0.69 0.60 0.54 0.33 0.52 0.62 0.60 0.63 0.96 0.65 0.68 0.43 0.46 0.96 0.97 1.28 1.02 1.26 1.48 1.31 1.33 1.65 2.24 2.15 2.13 2.02 1.78 1.59 0.96 0.66 0.81 0.80 1.11 0.75 0.79 0.56 0.67 0.67 0.63 0.37 0.45 0.44 0.62 0.56 0.68 0.55 0.39 0.55 0.50 0.42 0.38 0.55 0.43 0.63 0.29 0.30 0.52 0.45 0.33 0.42 0.46 0.56 0.34 0.19 0.16 0.27 0.40
0.79 1.03 0.81 0.88 0.82 0.86 0.58 1.01 0.73 0.90 0.78 0.61 0.39 0.38 0.35 0.49 0.59 0.59 0.65 0.87 0.72 0.51 0.34 0.35 0.43 0.39 0.72 0.50 0.51 0.68 0.82 1.08 0.91 1.03 0.83 1.35 1.35 1.26 1.56 1.27 1.49 1.74 1.86 1.85 2.10 1.91 1.42 1.07 1.02 0.89 0.94 1.01 0.78 0.71 0.62 0.97 1.34 1.36 0.53 0.42 0.46 0.46 0.44 0.78 0.50 0.46 0.32 0.41 0.48 0.39 0.43 0.51 0.58 0.45 0.35 0.35 0.37 0.39 0.30 0.73 0.37 0.39 0.48 0.33 0.41
0.70 1.11 1.48 1.07 0.83 0.67 1.03 1.33 1.08 0.58 1.09 0.42 0.56 0.82 0.72 0.74 0.56 0.51 0.55 1.01 0.75 0.61 0.50 0.49 0.40 0.34 0.27 0.39 0.54 0.49 0.68 0.91 1.10 1.18 1.34 1.32 1.36 1.93 1.84 1.46 1.55 1.72 1.75 1.65 1.82 1.87 1.83 1.42 1.10 0.99 0.71 0.75 0.71 0.83 1.19 0.60 0.71 0.78 0.72 0.73 0.78 0.77 0.59 0.51 0.47 0.50 0.41 0.41 0.45 0.48 0.46 0.45 0.49 0.54 0.50 0.38 0.36 0.30 0.58 0.60 0.62 0.52 0.55 0.38 0.32
0.95 0.96 1.27 1.22 1.21 0.78 0.69 0.57 0.59 0.94 1.04 0.52 0.45 0.75 0.75 0.80 0.39 0.76 0.47 0.81 1.06 0.52 0.62 0.54 0.56 0.38 0.45 0.38 0.74 0.67 0.57 0.91 1.02 1.30 1.34 1.04 1.16 1.35 1.54 1.46 1.08 1.83 1.14 1.39 1.60 1.78 1.58 1.47 1.67 1.30 1.36 1.30 1.03 0.83 1.03 0.84 0.91 0.88 0.96 1.05 0.97 1.01 1.06 1.10 1.07 0.81 0.62 0.54 0.48 0.54 0.67 0.57 0.68 0.54 0.54 0.58 0.46 0.43 0.48 0.52 0.84 0.69 0.42 0.50 0.44
1.37 1.29 1.21 0.87 1.26 1.10 0.78 0.77 0.77 0.88 0.72 0.86 0.58 0.80 0.83 0.78 0.63 0.53 0.81 0.70 0.78 0.92 0.99 0.67 0.77 0.72 0.55 0.86 0.48 0.82 0.94 0.93 1.40 1.12 1.00 1.09 1.13 1.25 1.11 1.42 1.16 1.32 1.36 1.39 1.29 1.53 1.38 1.61 1.27 1.73 2.03 1.39 0.92 0.64 0.78 0.83 0.86 1.24 1.43 1.37 1.25 1.37 1.21 1.19 1.27 1.49 1.28 1.29 1.11 0.95 0.81 0.75 0.83 1.21 0.93 0.76 0.65 0.63 0.72 0.62 0.66 0.59 0.71 0.57 0.56
1.18 1.26 1.32 0.69 0.91 1.05 1.95 1.47 0.88 0.72 1.06 0.85 0.96 1.09 0.91 0.64 0.41 0.57 0.87 0.50 0.58 0.73 0.69 0.88 0.82 0.95 1.10 0.74 0.73 0.87 1.34 0.88 0.58 0.92 0.94 0.99 0.91 1.26 0.91 1.35 0.94 0.94 1.30 1.16 1.14 1.34 1.47 1.29 1.08 1.20 1.17 1.22 1.11 1.07 1.01 0.84 0.94 1.19 1.27 1.16 1.64 2.08 1.87 1.75 1.44 1.40 1.18 1.33 1.60 1.48 1.21 1.03 0.84 0.83 0.87 0.94 1.25 0.94 0.98 1.00 1.13 0.87 0.73 0.98 0.83
1.54 1.67 1.10 1.02 1.53 1.86 1.56 1.34 0.94 0.73 0.93 0.77 0.87 1.23 1.06 1.11 1.09 0.83 0.90 0.99 1.43 0.68 1.17 1.15 1.10 1.17 0.97 0.91 1.26 1.44 1.18 0.94 1.10 1.18 1.10 0.94 0.76 0.83 0.81 1.38 1.17 1.07 1.03 1.03 0.96 1.00 1.09 1.24 1.17 1.04 0.83 0.97 1.00 0.89 0.96 1.27 1.05 1.15 1.06 1.70 1.39 1.10 1.18 1.19 1.29 1.47 1.57 1.66 1.83 2.28 2.23 2.29 1.89 1.67 1.83 1.61 1.35 1.38 1.27 1.12 1.69 1.53 1.66 1.71 1.93
0.98 1.25 1.44 2.05 1.77 0.84 0.57 0.82 0.90 0.97 0.79 1.16 1.43 1.04 1.30 0.90 0.79 1.71 1.09 0.82 0.97 1.03 1.06 0.79 0.94 0.88 1.26 1.10 1.00 0.95 1.01 0.78 0.68 0.71 0.53 0.66 0.83 1.43 0.83 1.23 1.60 1.63 0.97 1.14 1.31 1.04 0.95 1.22 1.66 1.41 1.30 1.10 1.13 1.06 1.02 0.83 0.80 0.87 0.93 0.86 1.27 1.90 1.43 1.43 2.06 1.70 1.58 1.91 1.90 1.87 2.17 2.12 2.10 2.03 1.93 1.65 1.54 1.45 1.53 1.50 1.69 1.89 1.84 2.16 2.03
1.05 0.95 1.26 2.00 1.25 1.26 0.61 1.07 1.12 0.95 0.94 1.35 0.73 0.39 0.39 0.59 0.99 1.14 0.99 1.12 0.87 0.64 0.96 1.00 0.92 0.93 1.07 0.81 0.52 0.33 0.34 0.53 0.75 0.61 0.64 0.76 0.79 1.01 1.26 1.56 1.06 0.83 0.98 1.37 1.37 1.24 0.86 1.29 0.90 1.05 1.11 1.11 1.06 0.96 0.93 0.87 1.04 0.97 1.00 1.05 1.10 1.16 1.94 2.91 2.13 2.16 2.22 2.15 2.33 2.44 2.17 2.22 2.56 2.68 2.21 2.07 1.68 2.06 1.81 1.75 1.70 1.68 1.99 2.32 2.60
1.70 1.55 1.27 1.38 1.57 1.10 0.85 1.01 1.47 1.23 1.13 0.82 0.92 0.83 0.54 0.61 0.52 1.13 0.72 0.73 0.71 0.65 0.59 0.60 0.66 0.68 0.77 0.64 0.48 0.84 0.98 0.94 1.00 0.52 0.62 0.60 0.89 1.27 0.85 1.20 1.22 1.24 1.26 1.32 1.13 1.14 1.18 0.98 1.62 1.12 1.15 1.28 1.16 1.14 0.95 1.14 1.16 1.05 1.19 1.08 1.06 1.19 1.21 1.19 1.84 2.64 2.64 2.39 2.34 2.50 2.80 2.87 2.56 2.28 2.70 2.57 2.12 1.78 1.70 1.92 1.71 1.65 1.79 2.03 2.51
0.83 0.80 0.71 0.91 0.71 1.02 1.20 1.04 1.08 1.26 0.89 0.54 0.48 0.40 0.85 0.49 0.30 0.68 0.54 0.73 0.68 0.71 0.58 0.48 0.58 0.55 0.55 0.74 1.09 0.89 1.12 0.86 0.68 0.67 0.85 0.71 0.56 0.79 0.84 0.81 0.95 1.15 1.26 1.35 1.13 1.18 1.06 1.32 1.22 1.47 1.47 1.95 1.91 1.46 1.45 1.16 1.16 1.08 1.09 1.07 1.08 1.06 1.14 1.31 1.35 1.36 1.86 2.59 2.81 2.99 3.19 3.61 3.31 2.87 2.71 2.87 2.40 2.26 2.19 2.02 2.33 2.55 2.45 2.53 2.97
0.67 0.70 1.09 0.67 0.81 0.58 0.81 1.06 1.13 0.70 0.38 0.28 0.33 0.39 0.30 0.13 0.09 0.12 0.37 0.62 0.55 1.03 0.68 0.61 0.46 0.48 0.58 0.57 0.98 1.02 0.60 0.59 0.83 1.36 1.02 0.68 0.73 0.72 0.71 0.87 0.57 0.95 0.92 0.98 1.51 1.71 1.60 1.24 1.04 1.14 1.56 1.55 2.25 1.93 1.63 1.90 2.10 2.07 1.63 1.29 1.14 1.12 1.17 1.24 1.35 1.51 1.60 2.09 2.29 2.62 3.07 3.53 3.18 3.62 3.00 3.58 2.80 2.57 2.73 2.63 3.22 3.59 3.97 4.11 3.61
0.72 0.57 0.67 0.71 1.13 0.83 0.83 1.12 0.70 0.46 0.77 0.74 0.49 0.36 0.13 0.09 0.09 0.09 0.12 0.23 0.33 0.31 0.41 0.63 0.73 0.83 1.07 1.01 0.74 0.88 0.81 0.95 1.04 0.79 0.76 1.02 0.81 0.86 0.91 1.27 1.57 1.51 0.72 1.37 1.47 1.68 2.13 2.29 2.17 1.66 1.65 1.33 1.49 1.38 1.97 1.98 1.88 1.71 1.67 1.77 2.04 2.06 1.94 1.88 2.15 2.27 2.20 2.12 1.94 2.26 2.30 3.14 3.02 2.70 2.67 3.35 2.95 2.93 2.83 3.25 3.28 3.75 4.21 4.53 4.72
0.89 0.73 0.45 0.45 0.44 0.40 0.40 0.47 0.63 0.51 0.64 1.05 0.59 0.39 0.25 0.25 0.20 0.15 0.17 0.30 0.20 0.52 0.72 0.63 0.85 0.98 0.91 0.89 0.78 0.72 0.71 0.61 0.68 0.89 0.88 0.67 0.84 1.09 1.07 1.14 1.12 0.84 1.14 1.02 1.21 1.89 1.55 1.68 2.93 1.99 2.60 2.28 1.84 2.09 2.33 2.04 2.08 1.84 1.76 2.37 2.40 2.34 2.17 1.69 2.11 2.06 1.96 1.89 1.93 1.70 2.31 2.64 2.42 2.28 3.00 2.99 2.57 2.63 3.21 3.43 3.58 3.75 3.57 3.62 3.53
0.94 0.89 0.72 0.56 0.56 0.56 0.49 0.58 0.44 0.58 0.90 0.83 0.56 0.43 0.39 0.28 0.30 0.42 0.58 0.32 0.33 0.33 0.45 0.59 0.82 0.92 0.64 1.01 0.93 0.81 0.70 0.84 0.72 0.87 0.97 1.11 1.14 0.92 0.97 0.93 1.05 0.82 1.03 1.09 1.23 1.17 1.30 1.65 1.85 1.66 1.60 1.79 1.77 2.07 1.44 1.94 2.09 1.74 1.82 1.89 1.98 1.94 1.86 1.96 1.89 1.74 1.59 1.55 1.51 1.51 1.72 2.03 2.27 2.06 2.72 2.75 2.38 2.59 2.98 3.27 3.51 3.20 3.17 2.88 2.87
0.90 1.11 1.45 0.67 0.79 0.58 0.55 0.44 0.58 0.50 1.05 1.31 0.63 0.28 0.25 0.26 0.27 0.28 0.26 0.50 0.72 0.60 0.64 0.59 0.75 0.80 0.88 0.86 0.96 1.10 0.93 1.32 1.00 0.65 0.58 0.93 1.16 1.08 1.01 1.00 1.25 0.97 1.05 1.16 0.92 0.92 1.06 0.93 0.78 1.19 1.18 1.21 1.19 1.56 1.44 1.00 1.76 2.23 2.18 1.87 1.45 1.22 1.64 1.86 1.62 1.41 1.71 1.61 1.55 1.44 1.70 1.95 1.93 1.82 2.06 2.46 2.18 2.44 2.52 2.71 2.81 2.97 2.90 3.02 2.95
1.40 1.27 1.01 0.81 1.07 1.09 0.57 0.54 0.69 1.69 1.95 1.77 1.15 0.60 0.42 0.32 0.37 0.38 1.11 0.71 0.73 1.06 0.87 0.74 0.89 0.98 0.78 0.59 0.58 0.94 1.34 1.29 0.88 0.50 0.48 0.60 0.96 0.94 1.12 1.08 0.80 0.76 1.05 0.98 1.06 0.65 0.82 0.84 1.27 1.28 0.88 0.96 1.40 1.16 1.15 1.38 1.22 1.54 1.26 1.67 1.66 1.60 1.70 1.16 1.22 1.47 1.32 1.29 1.40 1.69 1.33 1.52 1.59 1.48 1.70 1.92 2.02 2.17 2.66 2.64 2.81 2.82 2.80 2.91 3.05
0.98 0.73 0.49 0.75 1.12 0.92 0.48 0.59 0.43 1.07 1.11 1.14 0.64 0.40 0.29 0.28 0.34 0.35 0.27 0.66 0.78 0.70 0.57 0.63 0.60 0.84 0.95 0.67 0.75 0.98 1.16 1.22 0.82 0.72 0.69 1.02 1.22 1.15 1.06 0.93 1.30 1.01 1.47 1.02 1.31 1.29 1.48 1.51 1.53 1.53 1.83 1.70 1.80 1.92 1.94 1.13 1.29 1.42 1.64 1.79 2.25 1.64 1.43 1.41 1.54 1.16 1.10 1.22 1.33 2.14 1.34 1.31 1.27 1.46 1.24 1.39 1.82 2.09 1.94 2.15 2.21 2.37 2.63 2.80 2.82